Wind_Speed
25 26 27 28 28 30 32 35 36 34 32 25 21 17 13 10 13 14 15 13 11 8 8 10 8 7 9 6 4 6 8 11 13 18 26 27 30 32 31 32 31 28 23
25 25 27 29 28 29 31 34 36 35 33 31 25 22 18 15 15 16 14 12 11 11 12 13 12 11 9 8 8 6 8 9 10 12 21 27 32 26 33 31 26 24 26
24 24 27 29 31 31 31 32 34 36 35 32 30 28 24 20 16 16 15 14 13 13 14 13 11 10 10 8 7 7 8 11 11 11 16 23 26 30 34 30 31 28 29
23 24 25 27 31 33 34 32 33 34 35 37 35 31 26 25 24 19 16 15 14 13 13 13 10 9 7 6 6 6 6 8 10 13 15 15 20 26 30 31 30 33 33
22 23 25 26 28 30 32 33 34 34 34 35 35 35 32 29 29 26 23 19 15 14 15 14 12 11 5 1 9 10 9 8 7 9 11 17 19 18 21 27 32 33 32
21 23 24 25 26 28 29 30 31 33 34 34 34 34 33 33 31 28 26 24 22 17 14 14 14 13 5 8 6 5 8 9 10 12 10 8 13 20 20 22 23 27 31
20 21 23 25 26 28 28 28 28 30 31 32 32 33 32 32 31 31 30 28 25 22 20 18 16 14 11 4 15 13 16 16 19 15 13 14 12 13 17 21 24 23 25
18 20 22 24 26 27 28 29 29 29 30 30 31 31 31 31 31 31 30 29 27 26 24 21 19 17 13 10 6 10 17 18 17 19 21 21 22 22 20 19 20 25 28
17 18 21 23 26 26 27 27 28 29 30 30 31 30 29 29 30 30 30 30 28 27 25 24 24 21 19 16 13 10 9 10 13 16 19 21 22 23 23 23 24 24 25
15 17 20 23 25 26 26 27 27 29 30 30 31 31 31 29 29 29 29 28 29 28 28 27 24 23 21 19 16 14 13 11 10 10 12 14 16 20 23 24 23 24 26
13 15 18 20 22 24 25 25 26 27 28 28 29 30 30 30 30 29 28 27 27 28 28 27 28 26 22 21 21 20 17 14 13 12 11 12 12 13 15 17 19 22 26
10 12 15 17 19 21 23 24 25 26 27 27 28 28 29 30 30 30 30 28 28 27 27 27 29 30 28 23 21 23 23 20 15 12 12 12 12 12 13 14 15 15 17
8 10 12 13 15 18 19 21 22 24 26 27 27 27 28 29 30 30 30 29 28 28 29 29 28 28 28 27 23 22 23 25 24 19 13 11 11 11 12 12 14 16 17
7 8 9 11 13 15 17 19 20 21 23 24 25 26 28 29 28 28 29 29 29 28 26 27 29 29 27 25 24 23 24 25 26 26 25 21 15 13 11 11 12 14 13
6 7 8 9 11 13 15 16 17 19 20 22 24 26 27 28 31 31 30 30 30 30 29 27 24 24 25 25 26 25 23 23 22 21 23 23 22 21 18 15 13 12 12
8 8 9 9 10 12 13 15 16 19 21 23 24 25 27 28 28 29 29 29 29 28 27 26 25 24 24 24 25 27 28 26 25 23 22 22 21 21 20 19 17 15 13
11 10 10 10 11 11 12 14 16 17 18 20 21 23 24 24 25 26 26 27 27 26 25 26 26 25 25 25 25 25 25 26 29 26 24 23 22 23 23 22 20 18 16
12 13 13 13 13 12 12 13 14 15 16 18 19 19 20 21 22 22 24 26 24 24 24 24 24 24 24 25 25 24 24 24 23 23 26 27 25 24 25 25 26 26 25
14 15 16 15 15 15 15 15 16 17 17 18 19 21 20 21 21 22 23 23 23 23 23 23 23 22 23 23 22 23 23 24 24 24 23 23 22 25 25 25 25 26 27
16 17 18 18 17 17 17 17 18 18 19 19 20 20 20 21 21 21 22 22 22 23 23 22 22 21 21 21 22 21 21 21 22 22 22 22 22 22 22 23 25 26 28
17 18 20 20 20 19 20 20 20 20 20 20 21 22 23 23 22 22 22 21 21 22 22 22 21 21 20 20 20 20 20 20 21 22 23 23 23 23 23 24 24 24 24
14 16 19 20 21 22 22 22 22 22 23 22 23 24 24 24 24 24 23 23 22 22 24 23 21 21 21 20 18 18 19 19 19 19 21 22 23 23 23 23 23 23 23
11 13 15 18 20 22 22 23 23 24 24 24 24 25 25 25 26 26 25 24 24 23 23 24 22 21 18 18 19 18 18 18 19 19 19 21 22 23 24 25 25 24 25
8 9 11 14 16 17 18 20 21 22 24 25 25 26 27 27 27 27 27 26 25 25 24 25 25 22 23 20 14 17 17 17 17 18 19 20 21 22 23 24 24 25 25
9 8 9 11 13 14 14 15 16 17 20 21 23 24 25 27 27 28 28 27 26 25 25 24 25 23 21 24 22 13 15 16 17 17 17 18 20 22 23 24 24 25 26
8 9 8 8 10 11 11 12 12 14 15 17 19 21 22 23 24 25 25 25 24 24 24 24 24 23 20 22 23 21 13 13 15 16 17 17 17 19 21 22 24 24 25
Wind_Direction
13 10 13 13 10 15 14 17 17 18 25 25 20 15 17 360 346 350 350 352 351 352 352 357 352 338 325 319 288 257 243 235 237 218 216 216 224 230 229 238 241 243 241
17 18 21 20 17 21 19 22 21 23 26 29 26 20 17 6 1 356 356 354 347 333 321 319 317 308 301 302 309 275 253 248 234 228 226 232 227 227 237 243 238 240 237
22 24 26 25 24 25 26 23 26 26 28 31 29 27 20 14 6 359 354 352 354 352 347 343 325 300 296 301 296 286 275 264 260 242 236 240 239 236 235 241 229 249 229
25 26 28 27 28 29 29 24 25 27 27 31 31 28 25 27 24 13 5 359 355 350 354 355 344 314 284 298 317 301 276 273 267 263 248 243 241 243 242 242 244 242 238
27 27 27 28 28 29 30 28 25 28 29 29 31 31 26 29 27 25 22 15 10 2 357 358 358 354 268 211 301 294 281 262 269 288 271 251 245 247 251 250 247 244 245
29 27 26 25 26 28 28 28 24 27 29 29 30 30 29 30 30 26 24 23 22 20 13 11 4 5 341 209 181 244 245 274 274 272 271 263 248 249 258 254 257 253 239
32 29 26 25 26 26 26 26 25 24 27 28 28 29 28 28 28 27 25 26 25 21 22 19 13 10 14 274 231 243 266 276 273 276 277 263 253 263 259 253 255 262 255
36 32 30 28 28 28 27 25 26 26 26 26 26 27 25 25 26 28 29 27 25 23 23 22 18 18 20 12 347 274 268 270 278 274 266 265 266 268 264 255 259 255 253
33 34 34 31 30 29 30 27 26 27 29 28 28 25 25 24 24 24 26 28 28 31 29 27 25 21 18 13 1 345 324 305 290 281 276 272 271 268 265 260 267 257 249
27 28 33 31 31 29 30 30 27 27 28 29 28 27 25 25 25 25 25 25 26 28 29 30 28 29 27 20 11 353 342 331 313 303 292 284 280 274 271 269 263 257 254
24 20 29 30 30 29 28 31 31 29 27 27 27 28 26 26 27 26 25 24 25 27 29 30 29 30 27 26 24 18 5 348 329 320 307 297 292 290 282 278 275 271 268
26 14 22 23 26 27 27 29 30 30 28 26 26 25 26 26 26 27 26 24 24 24 22 21 23 28 27 26 26 23 20 13 1 344 323 308 304 297 286 281 279 279 278
19 10 12 17 20 20 24 26 28 31 28 26 28 27 26 26 24 24 25 25 25 23 22 20 18 20 26 28 28 28 28 27 27 21 4 343 324 306 298 294 289 281 279
6 6 4 11 14 16 16 19 20 23 26 26 26 25 27 28 26 26 25 23 22 23 24 22 21 18 18 21 25 24 25 27 30 31 28 23 13 1 343 324 307 297 289
337 356 356 4 9 13 15 15 15 17 18 20 20 21 23 26 24 23 23 22 22 20 21 21 22 23 23 23 23 21 19 19 19 25 29 29 30 32 28 16 357 337 321
310 325 337 350 2 7 8 11 13 13 14 15 15 16 19 20 21 19 21 21 20 19 18 16 17 18 19 21 24 26 28 27 26 27 25 25 27 26 23 18 10 4 0
292 300 309 323 337 350 358 2 2 6 8 10 11 12 15 16 16 14 16 19 20 18 15 16 17 17 16 17 16 15 18 24 30 27 25 22 21 21 20 20 17 12 3
281 287 294 303 312 323 333 340 342 350 354 354 358 2 3 6 10 9 11 14 11 11 14 15 16 17 18 15 14 14 14 15 15 18 25 28 24 22 20 18 18 18 17
278 281 285 291 299 306 313 318 323 330 336 340 343 345 347 348 353 358 3 3 5 6 8 9 12 13 13 14 13 14 13 10 11 11 12 15 19 25 26 26 23 18 12
275 279 283 287 291 296 300 304 310 315 320 323 327 329 331 334 337 339 345 349 352 353 357 360 2 5 8 8 8 9 13 13 10 8 7 8 7 6 5 360 356 360 0
270 275 280 284 288 290 293 297 301 305 309 313 315 318 320 325 328 329 332 333 336 338 341 346 352 356 359 1 1 3 5 9 10 9 8 8 7 6 3 2 2 3 1
276 277 279 282 285 287 291 293 297 302 304 309 310 313 317 320 322 323 325 323 323 325 326 331 339 344 348 351 356 357 359 1 5 8 7 7 7 6 5 6 5 4 4
287 286 285 285 286 288 291 294 299 302 304 307 309 312 315 315 317 319 320 320 319 317 316 315 321 325 331 340 344 349 353 357 359 1 7 5 7 5 5 6 7 8 6
303 308 307 300 297 298 298 299 302 304 304 308 310 313 316 318 318 319 319 319 318 315 312 311 313 316 318 321 333 341 347 348 355 358 0 4 6 6 6 7 8 9 10
312 325 337 329 321 318 317 314 312 311 313 316 317 319 320 321 322 322 321 320 319 316 313 312 310 313 313 316 322 326 340 346 348 355 357 359 2 4 5 5 9 10 10
323 329 347 352 344 340 339 338 337 335 335 336 334 332 331 331 330 330 327 325 323 320 319 318 316 320 320 315 318 324 321 343 346 349 355 357 1 2 4 4 7 10 12
Height
3067 3062 3056 3049 3043 3036 3028 3020 3012 3005 2997 2991 2986 2982 2979 2976 2973 2971 2968 2966 2964 2962 2961 2960 2958 2957 2956 2956 2955 2955 2956 2957 2959 2962 2965 2966 2969 2970 2972 2973 2976 2979 2982
3068 3064 3058 3051 3045 3038 3031 3023 3016 3008 3000 2994 2988 2984 2980 2976 2973 2970 2967 2965 2963 2961 2959 2958 2957 2956 2955 2954 2953 2953 2953 2954 2956 2958 2960 2961 2963 2965 2968 2969 2972 2974 2976
3070 3066 3060 3053 3047 3040 3033 3026 3019 3012 3005 2998 2992 2987 2982 2978 2974 2970 2967 2965 2962 2960 2957 2955 2954 2952 2952 2951 2951 2951 2950 2950 2952 2954 2955 2956 2957 2958 2960 2962 2965 2968 2971
3072 3067 3062 3056 3049 3043 3036 3030 3023 3016 3010 3002 2995 2989 2985 2980 2975 2971 2968 2965 2962 2959 2957 2954 2951 2949 2949 2949 2949 2949 2948 2948 2948 2948 2950 2950 2951 2952 2954 2956 2959 2961 2964
3074 3069 3064 3058 3052 3046 3040 3033 3027 3020 3013 3007 3001 2994 2989 2982 2977 2973 2969 2966 2962 2959 2956 2953 2950 2948 2947 2947 2947 2946 2946 2945 2945 2945 2944 2945 2946 2947 2947 2948 2949 2952 2955
3075 3071 3066 3061 3055 3048 3042 3036 3031 3025 3018 3012 3005 2999 2993 2987 2981 2976 2971 2967 2963 2959 2955 2952 2949 2946 2944 2945 2944 2943 2942 2941 2941 2941 2940 2940 2940 2941 2941 2942 2942 2943 2947
3076 3072 3068 3063 3058 3052 3045 3040 3035 3028 3022 3016 3010 3005 2998 2992 2986 2981 2975 2970 2965 2961 2956 2952 2949 2946 2944 2942 2942 2941 2940 2940 2938 2938 2937 2937 2937 2936 2935 2935 2936 2937 2938
3076 3073 3069 3065 3060 3055 3050 3044 3038 3031 3025 3019 3014 3009 3003 2998 2992 2985 2980 2974 2968 2963 2958 2954 2950 2946 2943 2941 2939 2938 2937 2936 2934 2932 2932 2932 2931 2931 2930 2930 2929 2930 2931
3079 3074 3071 3067 3062 3058 3053 3047 3041 3035 3029 3023 3017 3012 3007 3001 2996 2991 2985 2979 2973 2967 2962 2956 2952 2948 2944 2941 2938 2936 2933 2932 2930 2928 2927 2926 2925 2924 2924 2924 2923 2923 2923
3079 3076 3072 3068 3064 3059 3054 3049 3044 3037 3031 3026 3020 3015 3010 3005 3000 2994 2989 2984 2978 2971 2965 2960 2955 2950 2946 2942 2938 2935 2931 2928 2926 2924 2922 2921 2919 2918 2917 2917 2917 2917 2917
3081 3078 3074 3070 3065 3061 3056 3051 3046 3040 3035 3030 3024 3019 3014 3009 3003 2998 2993 2988 2982 2976 2971 2965 2960 2953 2948 2943 2939 2935 2930 2927 2924 2921 2918 2917 2915 2913 2912 2911 2910 2909 2909
3081 3078 3075 3071 3067 3062 3058 3054 3049 3045 3039 3035 3030 3025 3019 3012 3006 3001 2995 2990 2984 2979 2974 2970 2963 2957 2951 2946 2942 2937 2932 2927 2922 2919 2916 2913 2911 2909 2908 2906 2905 2904 2903
3080 3078 3075 3071 3068 3064 3060 3056 3052 3048 3043 3039 3035 3029 3023 3017 3011 3004 2998 2992 2987 2981 2976 2971 2967 2961 2955 2950 2945 2940 2935 2930 2924 2919 2915 2911 2908 2906 2904 2903 2901 2899 2898
3079 3076 3074 3071 3068 3064 3061 3058 3053 3049 3046 3041 3035 3030 3025 3020 3015 3009 3002 2997 2991 2985 2979 2974 2969 2964 2958 2954 2948 2943 2938 2932 2926 2921 2916 2911 2907 2904 2901 2899 2898 2895 2894
3078 3076 3073 3070 3067 3065 3061 3057 3054 3051 3046 3041 3037 3033 3027 3021 3015 3009 3004 2999 2994 2988 2982 2977 2973 2969 2964 2958 2952 2945 2940 2935 2930 2925 2920 2915 2911 2906 2902 2898 2895 2892 2889
3078 3075 3073 3070 3067 3065 3061 3058 3054 3050 3046 3042 3037 3032 3027 3021 3015 3011 3006 3001 2996 2991 2987 2982 2977 2972 2966 2961 2955 2949 2943 2937 2932 2927 2922 2917 2913 2908 2904 2899 2895 2891 2888
3075 3073 3072 3069 3066 3064 3061 3058 3053 3050 3045 3041 3037 3033 3027 3022 3017 3013 3008 3003 2998 2994 2989 2983 2978 2973 2967 2962 2957 2952 2946 2940 2935 2929 2925 2920 2915 2910 2905 2901 2896 2891 2886
3072 3070 3069 3067 3065 3062 3060 3056 3052 3049 3046 3041 3037 3032 3027 3023 3019 3014 3010 3006 3002 2996 2990 2984 2978 2972 2967 2962 2958 2953 2948 2943 2938 2933 2928 2923 2917 2913 2908 2903 2898 2893 2887
3068 3067 3065 3064 3062 3060 3057 3053 3050 3047 3045 3040 3036 3031 3027 3023 3019 3015 3012 3007 3002 2996 2990 2984 2978 2973 2968 2963 2958 2953 2949 2944 2939 2934 2929 2925 2920 2915 2910 2905 2900 2894 2889
3064 3063 3061 3060 3058 3056 3053 3050 3047 3044 3041 3038 3034 3030 3027 3022 3019 3016 3012 3006 3001 2995 2990 2984 2979 2973 2968 2963 2958 2953 2948 2944 2940 2935 2930 2925 2921 2916 2911 2907 2901 2896 2890
3057 3057 3056 3055 3053 3051 3048 3046 3043 3040 3037 3034 3030 3027 3023 3020 3017 3012 3008 3003 2999 2994 2989 2984 2979 2974 2969 2965 2959 2954 2949 2944 2939 2935 2931 2926 2921 2916 2911 2906 2900 2895 2890
3051 3051 3051 3049 3048 3046 3044 3041 3039 3036 3033 3030 3026 3022 3019 3015 3011 3007 3003 2998 2994 2991 2986 2981 2977 2973 2968 2964 2959 2955 2950 2945 2940 2935 2931 2926 2921 2916 2911 2906 2901 2895 2890
3047 3046 3045 3044 3042 3040 3039 3037 3035 3033 3029 3026 3022 3019 3015 3011 3006 3002 2998 2994 2989 2986 2982 2976 2973 2969 2964 2961 2957 2953 2949 2944 2940 2935 2930 2926 2921 2916 2911 2906 2901 2895 2889
3044 3042 3042 3040 3038 3036 3034 3032 3030 3028 3024 3022 3018 3015 3011 3007 3003 2998 2993 2988 2984 2980 2976 2973 2969 2966 2961 2957 2953 2951 2947 2944 2939 2935 2930 2925 2921 2917 2912 2907 2902 2896 2890
3044 3041 3039 3038 3036 3033 3031 3028 3026 3023 3020 3018 3015 3011 3006 3002 2998 2993 2988 2983 2978 2974 2970 2967 2963 2961 2958 2954 2951 2947 2944 2941 2938 2934 2931 2926 2921 2917 2912 2907 2902 2897 2891
3043 3041 3038 3035 3034 3032 3029 3026 3023 3020 3017 3015 3011 3007 3002 2998 2992 2988 2983 2978 2973 2968 2965 2962 2958 2956 2954 2951 2948 2945 2941 2939 2936 2933 2930 2926 2922 2917 2913 2908 2903 2898 2893